Location: Bílinka
(49.3579°N, 14.3767°E)
Time: 02:20:17
(UTC+00:00)

FENGYUN 1C DEB - Pass Details

Date: 24 February 2024
Orbit: 849 x 875 km, 98.8° (Epoch: 23 April)

Event Time Altitude Azimuth Distance (km) Brightness Sun altitude
Rises 19:05:10 0° 194° (SSW) 3,432 ? -24.8°
Reaches altitude 10° 19:07:48 10° 204° (SSW) 2,504 ? -25.2°
Maximum altitude 19:12:42 31° 266° (W) 1,481 ? -26.0°
Drops below altitude 10° 19:17:40 10° 327° (NNW) 2,533 ? -26.8°
Sets 19:20:21 0° 338° (NNW) 3,478 ? -27.2°
